COSMOS 2251 DEB

Satellite information

Favourite Embed

Satellite Type and Status

DEBRISIN ORBIT

Key statistics

Satellite COSMOS 2251 DEB at a glance.

Uptime

11817

Days in orbit

Revolutions

≈ 14.6

Per day

Orbit

LEO

Low Earth Orbit

Inclination

74.1

Latest

Satellite identification and parameters

Extended collection of information and parameters for COSMOS 2251 DEB.

Object identification

Identified? True

Debris? True

Object name: COSMOS 2251 DEB

International designator: 1993-036RA

Object number (NORAD): 34409

Object ID (CCSDS): 34409

Country: COMMONWEALTH OF INDEPENDENT STATES (CIS)

Current information (Y/N): Y

RCS size: SMALL

Orbital parameters

Period: 98.774 minutes

Inclination: 74.0658 deg

SMA: 7078.174 km

Apoapsis: 756.431 km

Periapsis: 643.647 km

RAAN: 43.7117 deg

Eccentricy: 0.00796699

Argument of periapsis: 132.8164 deg

Mean anomaly: 18.4122 deg

Mean motion: 14.5787713 rev/day

Mean motion (dot): 0.00001708 rev/day2

B* drag term: 0.00036313358 1/REarth

Two-line elements (TLE)

Creation date: Oct. 23, 2025, 2:46 a.m.

Reference frame: TEME

Reference center: EARTH

Epoch: Oct. 22, 2025, 5:23 p.m. UTC

TLE line 0: 0 COSMOS 2251 DEB

TLE line 1: 1 34409U 93036RA 25295.72475597 .00001708 00000-0 36313-3 0 9995

TLE line 2: 2 34409 74.0658 43.7117 0079670 132.8164 18.4122 14.57877130884493

Live tracking on map

Real-time ground track for satellite COSMOS 2251 DEB.

In-orbit conjunctions

A list of the most updated potential collisions computed for object COSMOS 2251 DEB.

Target Orbit TCA Probability of collision Miss distance Type
FENGYUN 1C DEB SSO 2025-09-07 18:20:21 0.000104016 360.0 (m) DEBRIS
SL-14 DEB LEO 2025-02-25 21:03:07 0.0001305789 103.0 (m) DEBRIS
CZ-6A DEB LEO 2025-02-07 10:31:14 0.0002365912 617.0 (m) DEBRIS
NOAA 16 DEB SSO 2024-07-31 10:25:29 0.0002673866 226.0 (m) DEBRIS

Associated space launch

Military communications satellite. Destroyed in a collision with Iridium 33.

COSMOS 2251 DEB was lifted into orbit during the mission ‘Kosmos-3M | Strela-2M 51’, on board a Kosmos-3M space rocket.

The launch took place on June 16, 1993, 4:17 a.m. from 132/1 (132L).

For more information about the launch, click the button.

Launch to space Kosmos-3M | Strela-2M 51
Kosmos-3M | Strela-2M 51

Agency: N/A

Status: Launch Successful

Launch date: June 16, 1993, 4:17 a.m. UTC

Rocket: Kosmos-3M

Launch pad: 132/1 (132L)

Location: Plesetsk Cosmodrome, Russian Federation

...

Latest news about this satellite

There are no fresh news available about this satellite. Check back as we update our databases every day.


Newsletter sign-up

Weekly statistics, charts and insights to help you stay on top of the space industry.